www.pogodaiklimat.ru

Погода и климат >> Архив погоды >> Россия >> Калининградская область >> Черняховск


ПОГОДА в Черняховске

  • Прогноз погоды в Черняховске
  • Монитор погоды в Черняховске
  • Климат города

АРХИВ ПОГОДЫ в Черняховске

Время (UTC), дата Ветер
(напр.,м/с)
 
Видим.   Явления Облачность Т
(С)
Тd
(С)
f
(%)
Тe
(С)
Тes
(С)
Комфортность P
(гПа)
Po
(гПа)
Тmin
(С)
Tmax
(С)
R
(мм)
R24
(мм)
S
(см)
15 11.09 Ю 1-4
{6}
н/о н/о +20.7 +14.8 69 +25 +25 комфорт 1017.7 1013.9
18 11.09 ЮЗ 1-3
{3}
10 км 10/0 2000 м
[Ac As]
+18.5 +13.2 71 +20 +20 1017.4 1013.6 +22.0
21 11.09 Ю 1-4
{4}
н/о н/о +17.1 +12.1 72 +18 +18 1016.7 1012.9
00 12.09 Ю 2-5
{6}
н/о н/о +17.6 +11.4 67 +18 +18 1015.9 1012.1
03 12.09 ЮЗ 3-5
{6}
н/о н/о +17.4 +12.5 73 +17 +17 1015.7 1011.9 +17.1
06 12.09 ЮЗ 3-6
{6}
10 км 9/8 300 м
[Sc Cc]
+18.2 +14.3 78 +19 +19 1015.8 1012.0 +16.8
09 12.09 ЮЗ 4-7
{9}
н/о н/о +22.4 +16.3 68 +27 +27 душно 1015.7 1012.0
12 12.09 З 1-3
{8}
н/о н/о +21.5 +16.9 75 +25 +25 комфорт 1015.4 1011.7
15 12.09 СЗ 4-6
{8}
н/о н/о +18.7 +15.9 84 +20 +20 1015.6 1011.8
18 12.09 З 1-3
{7}
10 км 9/9 300 м
[Cu Sc]
+15.8 +14.2 90 +16 +16 1017.1 1013.3 +24.6 0.0
21 12.09 З 2-5
{6}
н/о н/о +15.2 +13.4 89 +15 +15 1018.0 1014.2
00 13.09 ЮЗ 1-2
{5}
н/о н/о +14.4 +13.3 93 +15 +15 1018.3 1014.5
03 13.09 ЮЗ 1-2
{2}
н/о н/о +12.9 +12.2 96 +13 +13 1019.2 1015.3 +12.9
06 13.09 ЮЗ 1-2
{2}
20 км 9/6 600 м
[Sc Ac lent Ci fib]
+13.1 +11.8 92 +13 +14 1020.1 1016.2 +12.3
09 13.09 З 2-4
{4}
н/о н/о +17.0 +12.0 72 +17 +17 1021.4 1017.6
12 13.09 З 2-4
{5}
н/о н/о +18.0 +10.8 63 +19 +19 1021.0 1017.2
15 13.09 С 2-3
{4}
н/о н/о +18.1 +11.1 64 +19 +19 1020.0 1016.2
18 13.09 штиль 0
{4}
10 км 8/6 600 м
[Cu Sc Ac trans]
+12.8 +10.2 84 +12 +12 1020.1 1016.2 +19.9
21 13.09 штиль 0
{1}
н/о н/о +10.3 +9.8 97 +9 +9 1020.1 1016.2
00 14.09 штиль 0
{1}
н/о н/о +11.6 +10.8 95 +11 +11 1020.3 1016.4
03 14.09 штиль 0 н/о н/о +7.8 +7.7 99 +7 +7 1020.5 1016.5 +7.7
06 14.09 штиль 0-1
{1}
4000 м дымка 3/0 2000 м
[Ac trans]
+10.9 +10.8 99 +10 +11 1020.8 1016.9 +6.3
09 14.09 ЮЗ 1-3
{3}
н/о н/о +17.5 +8.9 57 +19 +19 1020.9 1017.1
12 14.09 С 1-3
{4}
н/о н/о +19.3 +6.3 43 +21 +21 комфорт 1020.7 1016.9
15 14.09 штиль 0-1
{3}
н/о н/о +21.0 +4.7 34 +21 +21 комфорт 1020.1 1016.3
18 14.09 С 1-1
{4}
20 км 3/3 600 м
[Sc]
+10.9 +7.8 81 +11 +11 1020.3 1016.4 +21.4
21 14.09 штиль 0
{1}
н/о н/о +7.5 +7.3 99 +6 +6 1020.4 1016.4
00 15.09 штиль 0
{1}
н/о н/о +7.0 +6.9 99 +6 +6 1020.0 1016.0
03 15.09 штиль 0-1
{2}
н/о н/о +9.1 +8.3 95 +8 +8 1018.5 1014.6 +6.3
06 15.09 ЮВ 1-2
{2}
10 км 9/9 300 м
[Sc]
+11.9 +10.8 93 +12 +12 1018.2 1014.3 +6.3
09 15.09 Ю 1-3
{5}
н/о н/о +14.9 +13.6 92 +15 +15 1018.0 1014.2
12 15.09 Ю 2-4
{4}
н/о н/о +14.8 +14.0 95 +14 +14 1017.3 1013.5
15 15.09 Ю 2-5
{6}
н/о н/о +17.0 +14.5 85 +17 +17 1016.6 1012.8 3
18 15.09 ЮЗ 1-2
{6}
10 км 9/8 300 м
[Cu Sc Ac lent]
+13.4 +10.9 85 +14 +14 1018.1 1014.2 +17.2 3
21 15.09 ЮЗ 1-2
{4}
н/о н/о +12.6 +11.3 92 +13 +13 1018.6 1014.7
00 16.09 З 1-3
{5}
н/о н/о +12.1 +10.4 89 +12 +12 1019.2 1015.3
03 16.09 ЮЗ 1-1
{4}
н/о н/о +10.5 +9.9 96 +10 +10 1020.4 1016.5 +9.9
06 16.09 З 1-4
{4}
20 км 1/1 600 м
[Sc diur, vesp]
+12.2 +10.0 86 +12 +13 1021.9 1018.0 +9.1
09 16.09 З 2-7
{7}
н/о н/о +16.4 +9.4 63 +17 +17 1023.0 1019.2
12 16.09 З 2-4
{7}
н/о н/о +14.0 +11.7 86 +13 +13 1023.6 1019.7
15 16.09 СЗ 1-2
{4}
н/о н/о +16.7 +9.8 64 +18 +18 1023.1 1019.3
18 16.09 штиль 0
{3}
10 км 9/3 600 м
[Sc Ci fib]
+10.5 +9.9 96 +10 +10 1023.4 1019.5 +18.8 0.0
21 16.09 штиль 0-1
{1}
н/о н/о +10.8 +9.8 94 +10 +10 1023.0 1019.1
00 17.09 н/о н/о
03 17.09 н/о н/о
06 17.09 Ю 2-4 10 км 9/0
[Ac As]
+11.3 +9.2 87 +10 +10 1021.2 1017.3 +8.9
09 17.09 ЮЗ 4-7
{8}
н/о н/о +18.7 +10.4 58 +19 +19 1020.4 1016.6
12 17.09 ЮЗ 3-7
{9}
н/о н/о +22.1 +10.8 49 +24 +24 комфорт 1019.4 1015.6
15 17.09 З 1-3
{7}
н/о н/о +21.4 +11.4 53 +23 +23 комфорт 1018.6 1014.8
18 17.09 штиль 0-1
{3}
4000 м дымка 10/3 600 м
[Sc diur, vesp Ac cast Cs]
+14.7 +12.0 84 +14 +14 1019.2 1015.4 +22.6
21 17.09 штиль 0-2
{2}
н/о н/о +12.7 +10.8 88 +12 +12 1019.5 1015.6
00 18.09 штиль 0-1
{2}
н/о н/о +11.0 +9.9 93 +10 +10 1019.7 1015.8
03 18.09 штиль 0-1
{2}
н/о н/о +10.6 +9.7 94 +10 +10 1019.5 1015.6 +10.4
06 18.09 штиль 0-1
{2}
10 км 10/0 2000 м
[Ac trans Cs]
+12.9 +11.0 88 +12 +13 1020.0 1016.1 +10.2
09 18.09 Ю 2-4
{4}
н/о н/о +20.6 +13.1 62 +24 +24 комфорт 1019.9 1016.1
12 18.09 ЮЗ 2-4
{5}
н/о н/о +24.6 +10.6 41 +26 +26 жарко 1018.7 1015.0

 

Местоположение метеостанции Черняховск (Калининградская область, Россия): широта 54.63 долгота 21.80 высота над уровнем моря 31 м.

В архиве по умолчанию представлена погода в Черняховске за последнюю неделю. Архивные данные за месяц целиком и за предыдущие месяцы, начиная с января 2011 года, Вы можете получить, выбрав интересующий диапазон дат из раскрывающегося списка и нажав кнопку "Ввод!".


*Определитесь, кто Вы:
робот инопланетянин человек

Внимание! Время в таблицах - всемирное. Для получения местного времени необходимо прибавить поправку, которая в Черняховске равна 2 ч.

Смотрите также архив погоды в соседних городах и на ближайших метеорологических станциях:

Погода в Железнодорожном (Калининградская область, Россия) (43 км)
Погода в Советске (Калининградская область, Россия) (51 км)
Погода в Виштынце (Калининградская область, Россия) (62 км)
Погода в Kybart? (Литва) (63 км)
Погода в Ketrzyn (Польша) (68 км)
Погода в Калининграде (Калининградская область, Россия) (76 км)
Погода в ?ilut? (Литва) (83 км)
Погода в Рыбачьем (Калининградская область, Россия) (85 км)
Погода в Рыбном Порту (Калининградская область, Россия) (87 км)
Погода в Nidoje (Литва) (91 км)

Пояснения к столбцам:

Ветер - указаны скорость ветра в м/с - средняя за 10 мин, порывы в срок и между сроками (в фигурных скобках) и направление, откуда дует ветер: С - северный, СВ - северо-восточный, В - восточный, ЮВ - юго-восточный, Ю - южный, ЮЗ - юго-западный, З - западный, СЗ - северо-западный.
Видимость - горизонтальная дальность видимости в метрах или километрах. При видимости от 1 до 10 км при отсутствии осадков обычно наблюдается дымка, при ухудшении видимости до 1 км и менее - туман. В сухую погоду видимость может ухудшаться дымом, пылью или мглою.
Явления - указаны атмосферные явления, наблюдавшиеся в срок или в последний час перед сроком; фигурными скобками обозначены явления, наблюдавшиеся между сроками (за 1-3 часа до срока); квадратными скобками обозначены град или гололедные отложения с указанием их диаметра в мм.
Облачность - указаны через наклонную черту общая и нижняя облачность в баллах и высота нижней границы облаков в метрах; квадратными скобками обозначены формы облаков: Ci - перистые, Cs - перисто-слоистые, Cc - перисто-кучевые, Ac - высококучевые, As - высокослоистые, Sc - слоисто-кучевые, Ns - слоисто-дождевые, Cu - кучевые, Cb - кучево-дождевые. Подробнее классификацию облаков см. в Атласе облаков (PDF).
T - Температура воздуха - температура, измеренная на высоте 2 м над землей.
Td - Температура точки росы - температура, при понижении до которой содержащийся в воздухе водяной пар достигнет насыщения.
f - Относительная влажность воздуха - влажноcть воздуха, измеренная на высоте 2 м над землей.
Te - Эффективная температура - температура, которую ощущает одетый по сезону человек в тени. Характеристика душности погоды. При расчете учитывается влияние влажности воздуха и скорости ветра на теплоощущения человека.
Tes - Эффективная температура на солнце - температура, которую ощущает человек, с поправкой на солнечный нагрев. Характеристика знойности погоды. Зависит от высоты солнца над горизонтом, облачности и скорости ветра. Ночью, в пасмурную погоду, а также при ветре 12 м/с и более поправка равна нулю.
P - Атмосферное давление - приведенное к уровню моря атмосферное давление.
Po - Атмосферное давление - измеренное на уровне метеостанции атмосферное давление.
Tmin - Минимальная температура - минимум температуры воздуха на высоте 2 м над землей.
Tmax - Максимальная температура - максимум температуры воздуха на высоте 2 м над землей.
R - Количество осадков - Количество выпавших осадков за период времени, мм. При наведении курсора мыши на число - период времени, за который выпало указанное количество осадков.
R24 - Количество осадков - Количество выпавших осадков за 24 часа, мм.
S - Снежный покров - Высота снежного покрова, см. При наведении курсора мыши на число - состояние снежного покрова и степень покрытия местности в баллах.